Location: Sungai Pengitan
(2.8500°N, 113.7500°E)
Time: 03:52:55
(UTC+00:00)

Daily predictions for brighter satellites

Satellite Brightness Start Highest point End
(mag) Time Altitude Azimuth Time Altitude Azimuth Time Altitude Azimuth
ARGOS 4.1 10:29:06 10° SE 10:33:33 26° ENE 10:37:58 10° NNE
Cosmos 1697 Rocket 4.0 10:29:44 10° NNW 10:35:04 46° WSW 10:40:26 10° S
ARIANE 3 DEB 1.3 10:33:48 10° W 10:36:16 87° N 10:38:27 10° E
CZ-3B R/B 4.1 10:27:32 10° SW 10:36:19 51° SSE 10:44:48 10° E
Cosmos 1666 3.3 10:34:35 10° NNW 10:38:14 61° W 10:41:56 10° S
Cosmos 1980 Rocket 2.2 10:36:08 10° NNW 10:41:44 83° ENE 10:47:19 10° SSE
Atlas Centaur 2 3.9 10:41:09 10° WSW 10:43:22 15° SSW 10:45:33 10° S
YAOGAN 1 4.3 10:43:50 10° ESE 10:45:36 12° ENE 10:47:22 10° NE
Cosmos 1515 3.7 10:43:32 10° S 10:47:18 86° W 10:51:02 10° N
GMS 1 Rocket B 4.4 10:44:24 10° NW 10:48:15 51° NNE 10:52:14 10° ESE
BLOCK DM-SL R/B 1.9 10:47:43 10° WSW 10:49:27 46° S 10:52:49 10° E
Cosmos 1707 Rocket 4.4 10:45:59 10° SSE 10:49:41 28° E 10:53:23 10° NE
CZ-4B R/B 3.3 10:49:31 10° E 10:49:54 10° E 10:50:18 10° ESE
OAO 3 Rocket 3.4 10:48:50 10° WSW 10:53:25 63° NW 10:57:47 11° NE
Cosmos 44 Rocket 4.5 10:51:55 10° NNE 10:55:08 18° ENE 10:58:19 10° ESE
SJ-11-01 4.4 10:54:25 10° SSE 10:59:03 53° ENE 11:03:39 10° N
Meteor 1-11 Rocket 4.0 10:54:17 10° N 10:59:55 52° E 11:05:39 10° SSE
Cosmos 2266 Rocket 4.0 10:53:37 10° N 10:59:58 70° E 11:06:17 10° S
SL-16 R/B 3.2 10:56:02 10° NNE 11:00:20 22° ENE 11:04:36 10° ESE
Aurora 2 Rocket 4.0 10:58:40 10° NNW 11:02:59 31° NNE 11:07:21 15° E
Cosmos 1544 3.0 10:59:29 10° N 11:03:07 85° E 11:06:46 10° S
Cosmos 1536 3.3 11:00:09 10° NNE 11:03:49 36° E 11:07:29 10° SSE
ARIANE 5 DEB (SYLDA) 3.9 10:58:07 10° W 11:04:25 85° N 11:07:33 15° E
Meteor 1-19 Rocket 4.3 11:02:36 10° S 11:08:39 82° E 11:14:37 10° N
ASTEX 1 4.5 11:04:55 10° SE 11:08:45 23° E 11:10:43 18° NE
CZ-4C R/B 3.3 11:00:36 10° N 11:08:56 56° ENE 11:17:21 10° SE
SL-08 RB Rocket 3.9 11:07:04 10° SSE 11:11:33 48° ENE 11:16:00 10° N
Ariane V96 H10-3 4.2 11:11:47 10° SW 11:13:36 20° S 11:15:51 10° SE
SL-24 R/B - RUBIN 2 4.3 11:10:01 10° NNW 11:14:16 57° WSW 11:18:49 10° S
Cosmos 2278 4.2 11:11:51 10° NNW 11:17:25 63° WSW 11:22:59 10° S
CZ-4 R/B 2.1 11:14:29 10° SE 11:18:15 32° ENE 11:20:11 21° NNE
Okean O Rocket 1.6 11:15:28 10° S 11:19:54 86° WSW 11:24:21 10° NNW
CZ-4B R/B 3.4 11:15:10 10° S 11:20:41 73° WSW 11:26:04 10° NNW
Spelda 2.1 11:19:28 10° W 11:21:43 86° N 11:22:12 50° ENE
H-2A R/B 3.2 11:18:43 10° SE 11:21:32 28° E 11:21:32 28° E
BREEZE M DEB (TANK) 4.3 11:18:58 10° N 11:21:43 16° NNE 11:21:43 16° NNE
Ariane H10-3 4.2 11:20:29 10° WNW 11:24:46 68° N 11:41:07 18° E
Cosmos 1538 Rocket 4.4 11:21:03 10° SSW 11:26:23 65° WNW 11:31:41 10° N
Cosmos 1378 4.2 11:24:07 10° SSE 11:26:35 26° ESE 11:26:35 26° ESE
deb Chang Zheng 4 4.4 11:25:03 10° S 11:29:14 52° WSW 11:33:24 10° NNW
Cosmos 1933 Rocket 4.2 11:25:30 10° NNW 11:29:43 56° W 11:34:00 10° S
Cosmos 1743 2.6 11:31:11 22° N 11:33:35 68° E 11:37:27 10° S
Cosmos 2298 Rocket 4.1 11:29:05 10° NNW 11:34:24 81° WSW 11:39:43 10° S
Hubble Space Telescope 2.0 11:32:12 10° W 11:35:54 32° NNW 11:37:02 27° N
GPS 2-18 Rocket1 3.2 11:35:37 10° W 11:39:08 51° NNW 11:39:24 50° N
H-2A R/B 4.4 10:33:47 10° NW 11:40:01 53° NNE 11:46:31 30° ENE
ARIANE 5 R/B 2.9 11:36:48 10° WSW 11:40:13 31° S 11:40:30 30° S
Delta 7925 Rocket 4.3 11:36:26 10° SW 11:40:39 33° SSE 11:41:57 29° ESE
Cosmos 2297 Rocket 2.7 11:35:42 10° S 11:40:53 37° ESE 11:41:26 36° E
Cosmos 1869 Rocket 3.3 11:43:15 31° N 11:45:17 79° E 11:49:39 10° S
Cosmos 1680 Rocket 3.7 11:40:43 10° S 11:45:45 46° ESE 11:46:10 45° E
Cosmos 1607 4.1 11:44:50 10° S 11:51:04 54° ESE 11:52:27 46° ENE
Cosmos 1818 3.5 11:47:23 10° NNW 11:52:47 86° WSW 11:58:10 10° SSE
PSLV R/B 4.1 11:53:12 48° NNW 11:54:14 70° WNW 11:58:24 10° SSW
